This is the latest recevied weather packets stored in our database for station/object W8RSN-13. If no packets are shown the sender has not sent any weather packets the latest 10 day(s).
| Time | Temp. | Humidity | Pressure | Rain* | Wind** | Luminosity | Snow |
|---|---|---|---|---|---|---|---|
| 1787853563 | 32.22° C | 41% | 1015.1 hPa | - | - | - | - |
| 1787853261 | 31.67° C | 43% | 1015.2 hPa | - | - | - | - |
| 1787852961 | 31.67° C | 43% | 1015.3 hPa | - | - | - | - |
| 1787852660 | 31.67° C | 44% | 1015.2 hPa | - | - | - | - |
| 1787852359 | 31.67° C | 43% | 1015.2 hPa | - | - | - | - |
| 1787852058 | 31.11° C | 43% | 1015.1 hPa | - | - | - | - |
| 1787851757 | 31.11° C | 45% | 1015.3 hPa | - | - | - | - |
| 1787851456 | 31.11° C | 46% | 1015.4 hPa | - | - | - | - |
| 1787851155 | 30.56° C | 47% | 1015.1 hPa | - | - | - | - |
| 1787850875 | 30° C | 51% | 1015.3 hPa | - | - | - | - |
| 1787850574 | 30° C | 52% | 1015.1 hPa | - | - | - | - |
| 1787850273 | 29.44° C | 53% | 1015.4 hPa | - | - | - | - |
| 1787849972 | 29.44° C | 54% | 1015.5 hPa | - | - | - | - |
| 1787849671 | 28.89° C | 56% | 1015.2 hPa | - | - | - | - |
| 1787849370 | 28.89° C | 56% | 1015.4 hPa | - | - | - | - |
| 1787849069 | 28.33° C | 56% | 1015.5 hPa | - | - | - | - |
| 1787848768 | 27.78° C | 57% | 1015.5 hPa | - | - | - | - |
| 1787848467 | 27.78° C | 59% | 1015.4 hPa | - | - | - | - |
| 1787848167 | 27.22° C | 59% | 1015.3 hPa | - | - | - | - |
| 1787847866 | 27.78° C | 59% | 1015.5 hPa | - | - | - | - |
| 1787847565 | 27.22° C | 59% | 1015.4 hPa | - | - | - | - |
| 1787847264 | 27.22° C | 59% | 1015.3 hPa | - | - | - | - |
| 1787846963 | 27.22° C | 58% | 1015.5 hPa | - | - | - | - |
| 1787846662 | 27.22° C | 59% | 1015.4 hPa | - | - | - | - |
| 1787846361 | 27.22° C | 59% | 1015.5 hPa | - | - | - | - |
* Rain since midnight (hover to see other rain measurements)
** Current wind speed in m/s (hover to see current wind gust speed)